When you browse on this site, cookies collect data to enhance your experience and personalize the content and advertising you see.
Visit our Privacy Policy to learn more. By continuing to use the site, you agree to this use of cookies and data.
  • In Austria
  • List of Countries
  • For 7 days
  • Water Temperature
  • Weather Map
  • News
  • Weather Widgets
  • user-avatar
    Login

    Hourly Weather Saarbrucken

    Today, 31 May, Sunday

    Time Temperature Precipitation Wind Pressure Humidity
    00:00 +9°C° 0 mm 2 mps 743 mmHg 69%
    01:00 +9°C° 0 mm 2 mps 743 mmHg 72%
    02:00 +8°C° 0 mm 3 mps 743 mmHg 74%
    03:00 +8°C° 0 mm 3 mps 743 mmHg 77%
    04:00 +9°C° 0 mm 3 mps 743 mmHg 74%
    05:00 +10°C° 0 mm 3 mps 743 mmHg 71%
    06:00 +12°C° 0 mm 4 mps 743 mmHg 67%
    07:00 +13°C° 0 mm 4 mps 743 mmHg 62%
    08:00 +15°C° 0 mm 5 mps 743 mmHg 57%
    09:00 +16°C° 0 mm 5 mps 743 mmHg 53%
    10:00 +17°C° 0 mm 5 mps 743 mmHg 51%
    11:00 +17°C° 0 mm 5 mps 743 mmHg 50%
    12:00 +19°C° 0 mm 4 mps 743 mmHg 49%
    13:00 +19°C° 0 mm 4 mps 743 mmHg 49%
    14:00 +19°C° 0 mm 4 mps 743 mmHg 49%
    15:00 +20°C° 0 mm 4 mps 742 mmHg 50%
    16:00 +19°C° 0 mm 4 mps 742 mmHg 55%
    17:00 +18°C° 0 mm 3 mps 742 mmHg 61%
    18:00 +17°C° 0 mm 3 mps 742 mmHg 67%
    19:00 +16°C° 0 mm 3 mps 742 mmHg 69%
    20:00 +13°C° 0 mm 3 mps 743 mmHg 72%
    21:00 +12°C° 0 mm 3 mps 743 mmHg 74%
    22:00 +11°C° 0 mm 3 mps 743 mmHg 74%
    23:00 +11°C° 0 mm 3 mps 743 mmHg 73%

    Tomorrow, 1 June, Monday

    Time Temperature Precipitation Wind Pressure Humidity
    00:00 +11°C° 0 mm 4 mps 743 mmHg 73%
    01:00 +10°C° 0 mm 4 mps 743 mmHg 76%
    02:00 +10°C° 0 mm 3 mps 743 mmHg 79%
    03:00 +9°C° 0 mm 3 mps 743 mmHg 82%
    04:00 +10°C° 0 mm 4 mps 743 mmHg 79%
    05:00 +12°C° 0 mm 5 mps 743 mmHg 77%
    06:00 +13°C° 0 mm 5 mps 743 mmHg 74%
    07:00 +15°C° 0 mm 5 mps 743 mmHg 69%
    08:00 +17°C° 0 mm 5 mps 743 mmHg 65%
    09:00 +19°C° 0 mm 5 mps 743 mmHg 60%
    10:00 +20°C° 0 mm 5 mps 743 mmHg 57%
    11:00 +21°C° 0 mm 5 mps 743 mmHg 54%
    12:00 +22°C° 0 mm 5 mps 743 mmHg 50%
    13:00 +23°C° 0 mm 5 mps 742 mmHg 50%
    14:00 +23°C° 0 mm 5 mps 742 mmHg 51%
    15:00 +23°C° 0 mm 4 mps 742 mmHg 51%
    16:00 +22°C° 0 mm 4 mps 742 mmHg 56%
    17:00 +21°C° 0 mm 3 mps 742 mmHg 62%
    18:00 +20°C° 0 mm 3 mps 741 mmHg 68%
    19:00 +19°C° 0 mm 3 mps 742 mmHg 71%
    20:00 +17°C° 0 mm 3 mps 742 mmHg 74%
    21:00 +16°C° 0 mm 3 mps 742 mmHg 76%
    22:00 +14°C° 0 mm 3 mps 742 mmHg 78%
    23:00 +14°C° 0 mm 3 mps 742 mmHg 79%

    Day after tomorrow, 2 June, Tuesday

    Time Temperature Precipitation Wind Pressure Humidity
    00:00 +13°C° 0 mm 3 mps 742 mmHg 81%
    01:00 +13°C° 0 mm 3 mps 742 mmHg 83%
    02:00 +12°C° 0 mm 3 mps 742 mmHg 86%
    03:00 +11°C° 0 mm 3 mps 742 mmHg 89%
    04:00 +12°C° 0 mm 3 mps 742 mmHg 85%
    05:00 +13°C° 0 mm 3 mps 742 mmHg 81%
    06:00 +14°C° 0 mm 3 mps 742 mmHg 77%
    07:00 +17°C° 0 mm 4 mps 742 mmHg 71%
    08:00 +19°C° 0 mm 4 mps 742 mmHg 65%
    09:00 +21°C° 0 mm 4 mps 742 mmHg 60%
    10:00 +22°C° 0 mm 4 mps 741 mmHg 57%
    11:00 +23°C° 0 mm 4 mps 741 mmHg 54%
    12:00 +23°C° 0 mm 4 mps 740 mmHg 51%
    13:00 +25°C° 0 mm 3 mps 740 mmHg 51%
    14:00 +25°C° 0 mm 3 mps 739 mmHg 50%
    15:00 +25°C° 0 mm 3 mps 739 mmHg 50%
    16:00 +24°C° 0 mm 3 mps 738 mmHg 56%
    17:00 +23°C° 0 mm 2 mps 738 mmHg 62%
    18:00 +21°C° 0 mm 2 mps 738 mmHg 68%
    19:00 +19°C° 0 mm 2 mps 738 mmHg 72%
    20:00 +17°C° 0 mm 2 mps 737 mmHg 75%
    21:00 +15°C° 0 mm 1 mps 737 mmHg 79%
    22:00 +15°C° 0 mm 1 mps 737 mmHg 80%
    23:00 +14°C° 0 mm 1 mps 737 mmHg 81%

    3 June, Wednesday

    Time Temperature Precipitation Wind Pressure Humidity
    00:00 +13°C° 0 mm 1 mps 736 mmHg 81%
    01:00 +13°C° 0 mm 1 mps 736 mmHg 83%
    02:00 +13°C° 0 mm 1 mps 736 mmHg 84%
    03:00 +12°C° 0 mm 1 mps 735 mmHg 85%
    04:00 +13°C° 0 mm 1 mps 735 mmHg 82%
    05:00 +15°C° 0 mm 1 mps 735 mmHg 79%
    06:00 +16°C° 0 mm 1 mps 735 mmHg 76%
    07:00 +19°C° 0 mm 1 mps 735 mmHg 71%
    08:00 +20°C° 0 mm 1 mps 735 mmHg 66%
    09:00 +21°C° 0 mm 2 mps 734 mmHg 60%
    10:00 +23°C° 0 mm 2 mps 734 mmHg 57%
    11:00 +24°C° 0 mm 2 mps 734 mmHg 53%
    12:00 +25°C° 0 mm 2 mps 733 mmHg 50%
    13:00 +26°C° 0 mm 1 mps 733 mmHg 49%
    14:00 +26°C° 0 mm 1 mps 732 mmHg 48%
    15:00 +26°C° 0 mm 1 mps 732 mmHg 47%
    16:00 +25°C° 0.1 mm 1 mps 731 mmHg 55%
    17:00 +24°C° 0.1 mm 1 mps 731 mmHg 63%
    18:00 +23°C° 0.1 mm 1 mps 731 mmHg 70%
    19:00 +21°C° 0.2 mm 1 mps 731 mmHg 75%
    20:00 +19°C° 0.2 mm 1 mps 731 mmHg 79%
    21:00 +18°C° 0.2 mm 1 mps 731 mmHg 83%
    22:00 +16°C° 0.3 mm 1 mps 731 mmHg 86%
    23:00 +16°C° 0.3 mm 1 mps 730 mmHg 88%

    4 June, Thursday

    Time Temperature Precipitation Wind Pressure Humidity
    00:00 +16°C° 0.3 mm 1 mps 730 mmHg 90%
    01:00 +16°C° 0.5 mm 1 mps 730 mmHg 92%
    02:00 +16°C° 0.5 mm 1 mps 730 mmHg 94%
    03:00 +16°C° 0.5 mm 1 mps 729 mmHg 95%
    04:00 +16°C° 0.5 mm 2 mps 729 mmHg 96%
    05:00 +16°C° 0.5 mm 2 mps 730 mmHg 96%
    06:00 +16°C° 0.5 mm 3 mps 730 mmHg 96%
    07:00 +17°C° 0.4 mm 3 mps 730 mmHg 95%
    08:00 +17°C° 0.4 mm 4 mps 730 mmHg 93%
    09:00 +17°C° 0.4 mm 4 mps 730 mmHg 92%
    10:00 +18°C° 0.6 mm 4 mps 730 mmHg 88%
    11:00 +19°C° 0.6 mm 3 mps 730 mmHg 83%
    12:00 +20°C° 0.6 mm 3 mps 731 mmHg 79%
    13:00 +20°C° 0.9 mm 3 mps 731 mmHg 79%
    14:00 +20°C° 0.9 mm 3 mps 731 mmHg 80%
    15:00 +20°C° 0.9 mm 3 mps 731 mmHg 80%
    16:00 +20°C° 0.5 mm 2 mps 731 mmHg 81%
    17:00 +19°C° 0.5 mm 2 mps 731 mmHg 83%
    18:00 +20°C° 0.5 mm 1 mps 732 mmHg 84%
    19:00 +18°C° 0.1 mm 1 mps 732 mmHg 86%
    20:00 +15°C° 0.1 mm 1 mps 732 mmHg 88%
    21:00 +14°C° 0.1 mm 1 mps 733 mmHg 90%
    22:00 +13°C° 0 mm 1 mps 733 mmHg 91%
    23:00 +13°C° 0 mm 1 mps 733 mmHg 92%

    5 June, Friday

    Time Temperature Precipitation Wind Pressure Humidity
    00:00 +12°C° 0 mm 1 mps 733 mmHg 93%
    01:00 +12°C° 0 mm 1 mps 733 mmHg 93%
    02:00 +11°C° 0 mm 1 mps 733 mmHg 93%
    03:00 +11°C° 0 mm 1 mps 733 mmHg 93%
    04:00 +12°C° 0 mm 1 mps 733 mmHg 91%
    05:00 +13°C° 0 mm 1 mps 733 mmHg 89%
    06:00 +13°C° 0 mm 0 mps 734 mmHg 86%
    07:00 +16°C° 0 mm 1 mps 734 mmHg 80%
    08:00 +19°C° 0 mm 1 mps 734 mmHg 74%
    09:00 +21°C° 0 mm 1 mps 734 mmHg 68%
    10:00 +22°C° 0 mm 1 mps 733 mmHg 63%
    11:00 +23°C° 0 mm 2 mps 733 mmHg 58%
    12:00 +23°C° 0 mm 2 mps 733 mmHg 54%
    13:00 +24°C° 0 mm 2 mps 732 mmHg 54%
    14:00 +24°C° 0 mm 2 mps 732 mmHg 54%
    15:00 +24°C° 0 mm 2 mps 731 mmHg 54%
    16:00 +24°C° 0 mm 2 mps 731 mmHg 61%
    17:00 +23°C° 0 mm 2 mps 731 mmHg 67%
    18:00 +22°C° 0 mm 1 mps 731 mmHg 73%
    19:00 +21°C° 0.2 mm 1 mps 731 mmHg 78%
    20:00 +19°C° 0.2 mm 1 mps 731 mmHg 82%
    21:00 +15°C° 0.2 mm 0 mps 731 mmHg 86%
    22:00 +15°C° 0.3 mm 0 mps 731 mmHg 87%
    23:00 +15°C° 0.3 mm 0 mps 731 mmHg 88%
    Show more